| time (UTC) | temp C | wind direction | speed KPH | gust KPH | rain 1hr cm | rain 24hr cm | rain mn cm | humidity % | barometer mb |
| 20260510083528 | 13 | 131 | 6.4 | 9.7 | 0.00 | 0.00 | 0.00 | 74 | |
| 20260510082525 | 14 | 132 | 8.0 | 14.5 | 0.00 | 0.00 | 0.00 | 73 | |
| 20260510081521 | 14 | 125 | 6.4 | 9.7 | 0.00 | 0.00 | 0.00 | 70 | |
| 20260510080526 | 14 | 110 | 8.0 | 9.7 | 0.00 | 0.00 | 0.00 | 70 | |
| 20260510075523 | 14 | 106 | 9.7 | 12.9 | 0.00 | 0.00 | 0.00 | 69 | |
| 20260510074527 | 14 | 111 | 9.7 | 14.5 | 0.00 | 0.00 | 0.00 | 68 | |
| 20260510073523 | 14 | 102 | 8.0 | 16.1 | 0.00 | 0.00 | 0.00 | 68 | |
| 20260510072528 | 14 | 100 | 9.7 | 14.5 | 0.00 | 0.00 | 0.00 | 67 | |
| 20260510071525 | 15 | 100 | 12.9 | 17.7 | 0.00 | 0.00 | 0.00 | 66 | |
| 20260510070521 | 15 | 94 | 11.3 | 17.7 | 0.00 | 0.00 | 0.00 | 67 | |
| 20260510065527 | 15 | 94 | 9.7 | 17.7 | 0.00 | 0.00 | 0.00 | 67 | |
| 20260510064523 | 15 | 102 | 9.7 | 16.1 | 0.00 | 0.00 | 0.00 | 69 | |
| 20260510063527 | 14 | 98 | 8.0 | 14.5 | 0.00 | 0.00 | 0.00 | 70 | |
| 20260510062543 | 14 | 97 | 9.7 | 14.5 | 0.00 | 0.00 | 0.00 | 71 | |
| 20260510061528 | 14 | 96 | 8.0 | 11.3 | 0.00 | 0.00 | 0.00 | 72 | |
| 20260510060526 | 14 | 110 | 9.7 | 12.9 | 0.00 | 0.00 | 0.00 | 72 | |
| 20260510055521 | 14 | 101 | 6.4 | 12.9 | 0.00 | 0.00 | 0.00 | 72 | |
| 20260510054526 | 14 | 89 | 8.0 | 11.3 | 0.00 | 0.00 | 0.00 | 72 | |
| 20260510053522 | 14 | 104 | 9.7 | 14.5 | 0.00 | 0.00 | 0.00 | 73 | |
| 20260510052548 | 14 | 94 | 9.7 | 14.5 | 0.00 | 0.00 | 0.00 | 72 | |
| 20260510051523 | 14 | 87 | 6.4 | 11.3 | 0.00 | 0.00 | 0.00 | 72 | |
| 20260510050529 | 14 | 126 | 8.0 | 12.9 | 0.00 | 0.00 | 0.00 | 72 | |
| 20260510045525 | 14 | 70 | 6.4 | 12.9 | 0.00 | 0.00 | 0.00 | 72 | |
| 20260510044541 | 13 | 90 | 8.0 | 12.9 | 0.00 | 0.00 | 0.00 | 72 | |
| 20260510043526 | 14 | 90 | 8.0 | 12.9 | 0.00 | 0.00 | 0.00 | 72 | |
| 20260510042522 | 14 | 67 | 8.0 | 12.9 | 0.00 | 0.00 | 0.00 | 71 | |
| 20260510041527 | 13 | 79 | 6.4 | 9.7 | 0.00 | 0.00 | 0.00 | 71 | |
| 20260510040524 | 14 | 97 | 11.3 | 16.1 | 0.00 | 0.00 | 0.00 | 71 | |
| 20260510035529 | 14 | 118 | 8.0 | 12.9 | 0.00 | 0.00 | 0.00 | 71 | |
| 20260510034524 | 13 | 151 | 4.8 | 8.0 | 0.00 | 0.00 | 0.00 | 71 | |
| 20260510033541 | 13 | 111 | 8.0 | 12.9 | 0.00 | 0.00 | 0.00 | 71 | |
| 20260510032526 | 14 | 101 | 8.0 | 14.5 | 0.00 | 0.00 | 0.00 | 71 | |
| 20260510031522 | 13 | 69 | 3.2 | 8.0 | 0.00 | 0.00 | 0.00 | 70 | |
| 20260510030527 | 13 | 360 | 1.6 | 6.4 | 0.00 | 0.00 | 0.00 | 70 | |
| 20260510025543 | 13 | 50 | 8.0 | 14.5 | 0.00 | 0.00 | 0.00 | 71 | |
| 20260510024529 | 13 | 47 | 8.0 | 12.9 | 0.00 | 0.00 | 0.00 | 71 | |
| 20260510023526 | 13 | 94 | 8.0 | 12.9 | 0.00 | 0.00 | 0.00 | 72 | |
| 20260510022542 | 13 | 86 | 8.0 | 14.5 | 0.00 | 0.00 | 0.00 | 72 | |
| 20260510021526 | 13 | 112 | 8.0 | 14.5 | 0.00 | 0.00 | 0.00 | 72 | |
| 20260510020522 | 13 | 89 | 11.3 | 19.3 | 0.00 | 0.00 | 0.00 | 71 | |
| 20260510015527 | 13 | 56 | 11.3 | 19.3 | 0.00 | 0.00 | 0.00 | 71 | |
| 20260510014524 | 13 | 104 | 11.3 | 19.3 | 0.00 | 0.00 | 0.00 | 71 | |
| 20260510013528 | 13 | 108 | 12.9 | 20.9 | 0.00 | 0.00 | 0.00 | 70 | |
| 20260510012525 | 13 | 114 | 16.1 | 20.9 | 0.00 | 0.00 | 0.00 | 70 | |
| 20260510011521 | 13 | 104 | 16.1 | 20.9 | 0.00 | 0.00 | 0.00 | 71 | |
| 20260510010526 | 13 | 112 | 14.5 | 20.9 | 0.00 | 0.00 | 0.00 | 71 | |
| 20260510005522 | 13 | 90 | 11.3 | 17.7 | 0.00 | 0.00 | 0.00 | 72 | |
| 20260510004547 | 13 | 106 | 14.5 | 22.5 | 0.00 | 0.00 | 0.00 | 74 | |
| 20260510003523 | 13 | 101 | 12.9 | 20.9 | 0.00 | 0.00 | 0.00 | 76 | |
| 20260510002529 | 13 | 94 | 11.3 | 19.3 | 0.00 | 0.00 | 0.00 | 81 | |
| 20260510001605 | 12 | 86 | 12.9 | 17.7 | 0.00 | 0.00 | 0.00 | 82 | |
| 20260510000522 | 12 | 82 | 14.5 | 19.3 | 0.00 | 0.00 | 0.00 | 83 | |
| 20260509235526 | 12 | 88 | 11.3 | 16.1 | 0.00 | 0.00 | 0.00 | 85 | |
| 20260509234523 | 12 | 95 | 12.9 | 16.1 | 0.00 | 0.00 | 0.00 | 88 | |
| 20260509233528 | 12 | 92 | 12.9 | 17.7 | 0.00 | 0.00 | 0.00 | 87 | |
| 20260509232524 | 12 | 91 | 14.5 | 19.3 | 0.00 | 0.00 | 0.00 | 87 | |
| 20260509231528 | 12 | 93 | 12.9 | 19.3 | 0.00 | 0.00 | 0.00 | 90 | |
| 20260509230525 | 11 | 93 | 12.9 | 16.1 | 0.00 | 0.00 | 0.00 | 91 | |
| 20260509225521 | 11 | 87 | 11.3 | 16.1 | 0.00 | 0.00 | 0.00 | 91 | |
| 20260509224547 | 11 | 90 | 12.9 | 16.1 | 0.00 | 0.00 | 0.00 | 91 | |
| 20260509223522 | 11 | 89 | 12.9 | 16.1 | 0.00 | 0.00 | 0.00 | 92 | |
| 20260509222528 | 11 | 91 | 12.9 | 14.5 | 0.00 | 0.00 | 0.00 | 92 | |
| 20260509221524 | 11 | 92 | 12.9 | 16.1 | 0.00 | 0.00 | 0.00 | 92 | |
| 20260509220529 | 11 | 85 | 12.9 | 16.1 | 0.00 | 0.00 | 0.00 | 92 | |
| 20260509215525 | 11 | 83 | 14.5 | 17.7 | 0.00 | 0.00 | 0.00 | 92 | |
| 20260509214541 | 11 | 90 | 12.9 | 16.1 | 0.00 | 0.00 | 0.00 | 92 | |
| 20260509213526 | 11 | 91 | 12.9 | 16.1 | 0.00 | 0.00 | 0.00 | 92 | |
| 20260509212543 | 11 | 90 | 12.9 | 16.1 | 0.00 | 0.00 | 0.00 | 91 | |
| 20260509211527 | 11 | 84 | 14.5 | 17.7 | 0.00 | 0.00 | 0.00 | 91 | |
| 20260509210524 | 11 | 84 | 14.5 | 17.7 | 0.00 | 0.00 | 0.00 | 91 | |
| 20260509205529 | 11 | 85 | 12.9 | 16.1 | 0.00 | 0.00 | 0.00 | 91 | |
| 20260509204526 | 11 | 86 | 14.5 | 17.7 | 0.00 | 0.00 | 0.00 | 91 | |
| 20260509203522 | 11 | 78 | 12.9 | 16.1 | 0.00 | 0.00 | 0.00 | 92 | |
| 20260509202526 | 10 | 80 | 12.9 | 16.1 | 0.00 | 0.00 | 0.00 | 93 | |
| 20260509201522 | 10 | 75 | 11.3 | 16.1 | 0.00 | 0.00 | 0.00 | 93 | |
| 20260509200527 | 11 | 75 | 11.3 | 17.7 | 0.00 | 0.00 | 0.00 | 93 | |
| 20260509195524 | 10 | 62 | 11.3 | 16.1 | 0.00 | 0.00 | 0.00 | 95 | |
| 20260509194529 | 10 | 59 | 11.3 | 16.1 | 0.00 | 0.00 | 0.00 | 96 | |
| 20260509193525 | 10 | 52 | 12.9 | 17.7 | 0.00 | 0.00 | 0.00 | 96 | |
| 20260509192520 | 10 | 47 | 14.5 | 19.3 | 0.00 | 0.00 | 0.00 | 97 | |
| 20260509191527 | 10 | 53 | 14.5 | 20.9 | 0.00 | 0.00 | 0.00 | 97 | |
| 20260509190522 | 10 | 38 | 16.1 | 20.9 | 0.00 | 0.00 | 0.00 | 97 | |
| 20260509185528 | 10 | 45 | 16.1 | 20.9 | 0.00 | 0.00 | 0.00 | 96 | |
| 20260509184524 | 10 | 46 | 16.1 | 20.9 | 0.00 | 0.00 | 0.00 | 96 | |
| 20260509183528 | 10 | 48 | 16.1 | 20.9 | 0.00 | 0.00 | 0.00 | 96 | |
| 20260509182525 | 10 | 56 | 14.5 | 19.3 | 0.00 | 0.00 | 0.00 | 96 | |
| 20260509181521 | 10 | 52 | 14.5 | 20.9 | 0.00 | 0.00 | 0.00 | 96 | |
| 20260509180526 | 10 | 51 | 14.5 | 20.9 | 0.00 | 0.00 | 0.00 | 96 | |
| 20260509175522 | 10 | 51 | 14.5 | 19.3 | 0.00 | 0.00 | 0.00 | 96 | |
| 20260509174548 | 10 | 62 | 14.5 | 19.3 | 0.00 | 0.00 | 0.00 | 96 | |
| 20260509173524 | 10 | 71 | 12.9 | 17.7 | 0.00 | 0.00 | 0.00 | 96 | |
| 20260509172529 | 10 | 79 | 12.9 | 17.7 | 0.00 | 0.00 | 0.00 | 96 | |
| 20260509171544 | 10 | 83 | 14.5 | 19.3 | 0.00 | 0.00 | 0.00 | 95 | |
| 20260509170521 | 10 | 84 | 14.5 | 17.7 | 0.00 | 0.00 | 0.00 | 95 | |
| 20260509165525 | 11 | 84 | 16.1 | 19.3 | 0.00 | 0.00 | 0.00 | 94 | |
| 20260509164522 | 11 | 84 | 16.1 | 19.3 | 0.00 | 0.00 | 0.00 | 94 | |
| 20260509163528 | 11 | 85 | 16.1 | 20.9 | 0.00 | 0.00 | 0.00 | 94 | |
| 20260509162523 | 10 | 85 | 16.1 | 20.9 | 0.00 | 0.00 | 0.00 | 95 | |
| 20260509161528 | 10 | 82 | 16.1 | 19.3 | 0.00 | 0.00 | 0.00 | 94 | |
| 20260509160545 | 10 | 82 | 16.1 | 19.3 | 0.00 | 0.00 | 0.00 | 94 | |
| 20260509155521 | 11 | 85 | 14.5 | 19.3 | 0.00 | 0.00 | 0.00 | 93 | |
| 20260509154526 | 11 | 84 | 16.1 | 19.3 | 0.00 | 0.00 | 0.00 | 93 | |
| 20260509153522 | 11 | 82 | 16.1 | 17.7 | 0.00 | 0.00 | 0.00 | 94 | |
| 20260509152528 | 10 | 86 | 12.9 | 16.1 | 0.00 | 0.00 | 0.00 | 94 | |
| 20260509151524 | 11 | 82 | 14.5 | 17.7 | 0.00 | 0.00 | 0.00 | 94 | |
| 20260509150529 | 10 | 82 | 14.5 | 19.3 | 0.00 | 0.00 | 0.00 | 95 | |
| 20260509145525 | 10 | 81 | 14.5 | 17.7 | 0.00 | 0.00 | 0.00 | 95 | |
| 20260509144521 | 10 | 80 | 16.1 | 17.7 | 0.00 | 0.00 | 0.00 | 95 | |
| 20260509143526 | 10 | 85 | 14.5 | 17.7 | 0.00 | 0.00 | 0.00 | 94 | |
| 20260509142603 | 10 | 89 | 14.5 | 17.7 | 0.00 | 0.00 | 0.00 | 94 | |
| 20260509141527 | 11 | 94 | 16.1 | 20.9 | 0.00 | 0.00 | 0.00 | 93 | |
| 20260509140523 | 11 | 95 | 17.7 | 20.9 | 0.00 | 0.00 | 0.00 | 93 | |
| 20260509135528 | 11 | 93 | 17.7 | 24.1 | 0.00 | 0.00 | 0.00 | 94 | |
| 20260509134525 | 11 | 96 | 16.1 | 19.3 | 0.00 | 0.00 | 0.00 | 94 | |
| 20260509133521 | 10 | 94 | 17.7 | 20.9 | 0.00 | 0.00 | 0.00 | 95 | |
| 20260509132525 | 11 | 91 | 16.1 | 20.9 | 0.00 | 0.00 | 0.00 | 95 | |
| 20260509131522 | 11 | 87 | 16.1 | 20.9 | 0.00 | 0.00 | 0.00 | 96 | |
| 20260509130528 | 11 | 86 | 16.1 | 19.3 | 0.00 | 0.00 | 0.00 | 96 | |
| 20260509125523 | 11 | 86 | 16.1 | 20.9 | 0.00 | 0.00 | 0.00 | 96 | |
| 20260509124528 | 11 | 84 | 16.1 | 20.9 | 0.00 | 0.00 | 0.00 | 97 | |
| 20260509123524 | 11 | 89 | 16.1 | 19.3 | 0.00 | 0.00 | 0.00 | 98 | |
| 20260509122521 | 11 | 85 | 17.7 | 22.5 | 0.00 | 0.00 | 0.00 | 98 | |
| 20260509121525 | 11 | 85 | 14.5 | 17.7 | 0.00 | 0.00 | 0.00 | 97 | |
| 20260509120524 | 11 | 87 | 12.9 | 17.7 | 0.00 | 0.00 | 0.00 | 96 | |
| 20260509115527 | 12 | 96 | 12.9 | 16.1 | 0.00 | 0.00 | 0.00 | 95 | |
| 20260509114523 | 12 | 100 | 14.5 | 17.7 | 0.00 | 0.00 | 0.00 | 93 | |
| 20260509113528 | 12 | 112 | 17.7 | 25.7 | 0.00 | 0.00 | 0.00 | 95 | |
| 20260509112525 | 12 | 117 | 16.1 | 22.5 | 0.00 | 0.00 | 0.00 | 97 | |
| 20260509111521 | 12 | 126 | 9.7 | 16.1 | 0.00 | 0.00 | 0.00 | 97 | |
| 20260509110547 | 12 | 131 | 11.3 | 16.1 | 0.00 | 0.00 | 0.00 | 97 | |
| 20260509105543 | 12 | 133 | 8.0 | 12.9 | 0.00 | 0.00 | 0.00 | 97 | |
| 20260509104527 | 12 | 136 | 6.4 | 11.3 | 0.00 | 0.00 | 0.00 | 97 | |
| 20260509103524 | 12 | 156 | 8.0 | 11.3 | 0.00 | 0.00 | 0.00 | 97 | |
| 20260509102528 | 12 | 160 | 8.0 | 12.9 | 0.00 | 0.00 | 0.00 | 96 | |
| 20260509101525 | 12 | 162 | 9.7 | 12.9 | 0.00 | 0.00 | 0.00 | 95 | |
| 20260509100521 | 12 | 170 | 8.0 | 12.9 | 0.00 | 0.00 | 0.00 | 95 | |
| 20260509095525 | 13 | 174 | 4.8 | 8.0 | 0.00 | 0.00 | 0.00 | 94 | |
| 20260509094522 | 13 | 173 | 6.4 | 12.9 | 0.00 | 0.00 | 0.00 | 94 | |
| 20260509093527 | 13 | 172 | 8.0 | 12.9 | 0.00 | 0.00 | 0.00 | 94 | |
| 20260509092523 | 12 | 170 | 6.4 | 11.3 | 0.00 | 0.00 | 0.00 | 94 | |
| 20260509091528 | 12 | 179 | 6.4 | 11.3 | 0.00 | 0.00 | 0.00 | 93 | |
| 20260509090526 | 13 | 169 | 6.4 | 9.7 | 0.00 | 0.00 | 0.00 | 93 | |
| 20260509085541 | 13 | 177 | 8.0 | 12.9 | 0.00 | 0.00 | 0.00 | 93 | |
| 20260509084526 | 13 | 177 | 9.7 | 14.5 | 0.00 | 0.00 | 0.00 | 92 |